Terminal Aerodrome Forecast
Issued by NWS Cleveland, OH

Home | Current Version | Previous Version | Graphics & Text | Print | Product List | Glossary Off
Versions: 1 2 3 4 5 6 7 8 9 10 11 12 13 14 15 16 17 18 19 20 21 22 23 24 25 26

000
FTUS41 KCLE 300807 AAB
TAFCLE
TAF AMD
KCLE 300807Z 3008/0112 VRB03KT P6SM OVC035
     FM301400 20010KT P6SM OVC035
     FM301900 22010KT P6SM -SHRA OVC030
      TEMPO 3019/3022 4SM -TSRA OVC020CB
     FM010000 22005KT P6SM OVC100
     FM010600 23007KT P6SM OVC015=

USA.gov is the U.S. government's official web portal to all federal, state and local government web resources and services.